Flag for Syria Weather past 2 weeks in Damascus, Syria

Now
72 °F

Scattered clouds.


Feels Like: 77 °F
Forecast: 54 / 81 °F
Wind: 5 mph from North

Location: Damascus Int. Airport


UV Index: 7 (High)

Visibility: N/A


Pressure: 29.98 "Hg

Humidity: 50%

Dew point: 52 °F

Location of DamascusLocation

Historic Weather in Damascus

°F

Damascus temperature yesterday

Maximum temperature yesterday: 91 °F (at 4:00 PM)
Minimum temperature yesterday: 50 °F (at 4:00 AM)
Average temperature yesterday: 71 °F

Past Weeks' High & Low Weather Summary

 TemperatureHumidityPressure
High91 °F (Apr 19, 4:00 PM)88% (Apr 13, 2:00 AM)30.21 "Hg (Apr 13, 2:00 AM)
Low37 °F (Apr 11, 6:00 AM)10% (Apr 18, 12:00 PM)29.77 "Hg (Apr 17, 2:00 PM)
Average65 °F40%29.98 "Hg
* Reported Apr 5 9:00 AM — Apr 20 9:00 AM, Damascus, Weather by CustomWeather, © 2014

Note: Actual official high and low records may vary slightly from our data, if they occured in-between our weather recording intervals... More about our weather records

Advertising

Historic Weather Conditions — Data for Previous 24 hours

 ConditionsComfort  
Time TempWeatherWind HumidityBarometerVisibility
9:00 AM
Apr 20
72 °FScattered clouds.5 mph50%29.98 "HgN/A
8:00 AM70 °FSunny.7 mph46%29.95 "Hg10 mi
7:00 AM68 °FSunny.2 mph53%29.98 "Hg10 mi
6:00 AM70 °FClear.2 mph50%29.98 "Hg10 mi
5:00 AM72 °FClear.5 mph41%30.01 "Hg10 mi
4:00 AM68 °FClear.5 mph40%30.01 "Hg10 mi
3:00 AM68 °FClear.2 mph46%30.01 "Hg10 mi
2:00 AM73 °FClear.5 mph29%30.01 "Hg10 mi
1:00 AM77 °FClear.14 mph26%30.04 "Hg10 mi
12:00 AM79 °FClear.14 mph26%30.04 "Hg10 mi
10:00 PM
Apr 19
79 °FClear.16 mph26%30.04 "Hg10 mi
9:00 PM75 °FClear.12 mph29%30.07 "Hg10 mi
8:00 PM77 °FSunny.14 mph26%30.04 "Hg10 mi
7:00 PM84 °FSunny.18 mph19%30.04 "Hg10 mi
6:00 PM86 °FSunny.16 mph14%30.01 "Hg10 mi
5:00 PM88 °FSunny.16 mph18%29.98 "Hg10 mi
4:00 PM91 °FSunny.16 mph11%29.98 "Hg10 mi
3:00 PM73 °FSunny.28 mph22%30.01 "Hg10 mi
2:00 PM90 °FSunny.14 mph18%30.04 "Hg10 mi
1:00 PM88 °FSunny.12 mph18%30.07 "Hg10 mi
12:00 PM82 °FSunny.14 mph21%30.07 "Hg10 mi
11:00 AM77 °FSunny.No wind30%30.09 "Hg10 mi
10:00 AM75 °FSunny.14 mph29%30.09 "Hg10 mi
Weather by CustomWeather, © 2014

See weather overview